,,,PA_Meas_PMT16A,,PR_Meas_QMR101_102,,RH_Meas_QMH101,,SR_Meas_QMS101,,TA_Meas_QMH101,,GenWind,,GenWind,
date,time,status,PA,status,PR,status,RH,status,SR,status,TA,status,DirAvg,status,SpdAvg,
2011-01-13, 00:00:04,VALID,1000.76,VALID,0,VALID,96.2917,VALID,0,VALID,25.785,VALID,344,VALID,0.801172,
2011-01-13, 00:01:04,VALID,1000.73,VALID,0,VALID,95.9027,VALID,0,VALID,25.7655,VALID,352,VALID,0.621875,
2011-01-13, 00:02:04,VALID,1000.7,VALID,0,VALID,95.7577,VALID,0,VALID,25.7655,VALID,339,VALID,0.333984,
2011-01-13, 00:03:04,VALID,1000.65,VALID,0,VALID,95.6738,VALID,0.100563,VALID,25.7655,VALID,281,VALID,0.265234,
2011-01-13, 00:04:04,VALID,1000.61,VALID,0,VALID,95.094,VALID,0,VALID,25.7655,VALID,338,VALID,0.740234,
2011-01-13, 00:05:04,VALID,1000.58,VALID,0,VALID,94.9109,VALID,0,VALID,25.8259,VALID,266,VALID,0.419141,
2011-01-13, 00:06:04,VALID,1000.57,VALID,0,VALID,94.8422,VALID,0,VALID,25.8025,VALID,354,VALID,0.817187,
2011-01-13, 00:07:04,VALID,1000.56,VALID,0,VALID,94.8575,VALID,0,VALID,25.8453,VALID,355,VALID,0.752734,
2011-01-13, 00:08:04,VALID,1000.55,VALID,0,VALID,94.7125,VALID,0,VALID,25.8453,VALID,356,VALID,0.770703,
2011-01-13, 00:09:04,VALID,1000.56,VALID,0,VALID,94.2396,VALID,0,VALID,25.8239,VALID,354,VALID,1.05547,
2011-01-13, 00:10:04,VALID,1000.55,VALID,0,VALID,94.354,VALID,0,VALID,25.8434,VALID,353,VALID,1.00937,
2011-01-13, 00:11:04,VALID,1000.56,VALID,0,VALID,94.4913,VALID,0,VALID,25.8453,VALID,303,VALID,0.329297,
2011-01-13, 00:12:04,VALID,1000.55,VALID,0,VALID,94.6515,VALID,0,VALID,25.8259,VALID,333,VALID,0.398047,
2011-01-13, 00:13:04,VALID,1000.53,VALID,0,VALID,94.9414,VALID,0,VALID,25.785,VALID,351,VALID,0.507031,
2011-01-13, 00:14:04,VALID,1000.52,VALID,0,VALID,95.0787,VALID,0,VALID,25.7655,VALID,333,VALID,0.509375,
2011-01-13, 00:15:04,VALID,1000.52,VALID,0,VALID,94.5447,VALID,0,VALID,25.748,VALID,340,VALID,1.06523,
2011-01-13, 00:16:04,VALID,1000.5,VALID,0,VALID,94.3235,VALID,0,VALID,25.748,VALID,344,VALID,0.807422,
2011-01-13, 00:17:04,VALID,1000.5,VALID,0,VALID,94.5371,VALID,0,VALID,25.7265,VALID,329,VALID,0.240625,
2011-01-13, 00:18:04,VALID,1000.52,VALID,0,VALID,94.5371,VALID,0,VALID,25.7071,VALID,330,VALID,0.148828,
2011-01-13, 00:19:04,VALID,1000.54,VALID,0,VALID,94.9872,VALID,0.100563,VALID,25.7071,VALID,332,VALID,0.229687,
2011-01-13, 00:20:04,VALID,1000.55,VALID,0,VALID,94.9338,VALID,0,VALID,25.6876,VALID,323,VALID,0.384375,
2011-01-13, 00:21:04,VALID,1000.56,VALID,0,VALID,94.9338,VALID,0.100563,VALID,25.709,VALID,305,VALID,0.601563,
2011-01-13, 00:22:04,VALID,1000.56,VALID,0,VALID,95.3915,VALID,0,VALID,25.6681,VALID,260,VALID,0.496484,
2011-01-13, 00:23:04,VALID,1000.56,VALID,0,VALID,95.6509,VALID,0,VALID,25.6681,VALID,248,VALID,0.388672,
2011-01-13, 00:24:04,VALID,1000.57,VALID,0,VALID,96.6045,VALID,0,VALID,25.6506,VALID,184,VALID,0.655078,
2011-01-13, 00:25:04,VALID,1000.55,VALID,0,VALID,98.4812,VALID,0,VALID,25.5532,VALID,184,VALID,0.521484,
2011-01-13, 00:26:04,VALID,1000.54,VALID,0,VALID,99.1754,VALID,0,VALID,25.4558,VALID,184,VALID,0.547656,
2011-01-13, 00:27:04,VALID,1000.54,VALID,0,VALID,102.662,VALID,0,VALID,25.3955,VALID,184,VALID,0.367969,
2011-01-13, 00:28:04,VALID,1000.52,VALID,0,VALID,104,VALID,0,VALID,25.3565,VALID,184,VALID,0.334375,
2011-01-13, 00:29:04,VALID,1000.51,VALID,0,INVALID,111.801,VALID,0,VALID,25.3195,VALID,184,VALID,0.441797,
2011-01-13, 00:30:04,VALID,1000.5,VALID,0,INVALID,123.954,VALID,0.100563,VALID,25.2202,VALID,189,VALID,0.471094,
2011-01-13, 00:31:04,VALID,1000.51,VALID,0,INVALID,142.477,VALID,0,VALID,25.1618,VALID,189,VALID,0.04375,
2011-01-13, 00:32:04,VALID,1000.52,VALID,0,INVALID,163.548,VALID,0,VALID,25.1248,VALID,189,VALID,0,
2011-01-13, 00:33:04,VALID,1000.52,VALID,0,INVALID,163.609,VALID,0,VALID,25.0644,VALID,189,VALID,0.28125,
2011-01-13, 00:34:04,VALID,1000.54,VALID,0,INVALID,163.632,VALID,0,VALID,25.0274,VALID,189,VALID,0.6625,
2011-01-13, 00:35:04,VALID,1000.52,VALID,0,INVALID,163.624,VALID,0,VALID,24.9282,VALID,189,VALID,0.648438,
2011-01-13, 00:36:04,VALID,1000.53,VALID,0,INVALID,163.624,VALID,0,VALID,24.8697,VALID,11,VALID,0.548437,
2011-01-13, 00:37:04,VALID,1000.51,VALID,0,INVALID,163.655,VALID,0,VALID,24.7919,VALID,11,VALID,0.386719,
2011-01-13, 00:38:04,VALID,1000.55,VALID,0,INVALID,163.639,VALID,0,VALID,24.7121,VALID,11,VALID,0.480859,
2011-01-13, 00:39:04,VALID,1000.53,VALID,0,INVALID,163.662,VALID,0.100563,VALID,24.675,VALID,11,VALID,0.536328,
2011-01-13, 00:40:04,VALID,1000.56,VALID,0,INVALID,163.662,VALID,0,VALID,24.6166,VALID,9,VALID,0.709375,
2011-01-13, 00:41:04,VALID,1000.55,VALID,0,INVALID,163.67,VALID,0,VALID,24.5564,VALID,3,VALID,0.589844,
2011-01-13, 00:42:04,VALID,1000.53,VALID,0,INVALID,163.647,VALID,0,VALID,24.5193,VALID,3,VALID,0.616406,
2011-01-13, 00:43:04,VALID,1000.54,VALID,0,INVALID,163.655,VALID,0,VALID,24.4822,VALID,3,VALID,0.537109,
2011-01-13, 00:44:04,VALID,1000.5,VALID,0,INVALID,163.67,VALID,0,VALID,24.422,VALID,3,VALID,0.476172,
2011-01-13, 00:45:04,VALID,1000.52,VALID,0,INVALID,163.693,VALID,0,VALID,24.383,VALID,3,VALID,0.421094,
2011-01-13, 00:46:04,VALID,1000.5,VALID,0,INVALID,163.662,VALID,0.100563,VALID,24.3636,VALID,3,VALID,0.493359,
2011-01-13, 00:47:04,VALID,1000.51,VALID,0,INVALID,163.678,VALID,0.100563,VALID,24.3228,VALID,3,VALID,0.521875,
2011-01-13, 00:48:04,VALID,1000.5,VALID,0,INVALID,163.67,VALID,0.100563,VALID,24.2857,VALID,3,VALID,0.417188,
2011-01-13, 00:49:04,VALID,1000.48,VALID,0,INVALID,163.685,VALID,0,VALID,24.2662,VALID,3,VALID,0.461328,
2011-01-13, 00:50:04,VALID,1000.48,VALID,0,INVALID,163.678,VALID,0,VALID,24.2468,VALID,3,VALID,0.436719,
2011-01-13, 00:51:04,VALID,1000.48,VALID,0,INVALID,163.693,VALID,0,VALID,24.2273,VALID,3,VALID,0.285547,
2011-01-13, 00:52:04,VALID,1000.43,VALID,0,INVALID,163.693,VALID,0.100563,VALID,24.2468,VALID,3,VALID,0.253125,
2011-01-13, 00:53:04,VALID,1000.42,VALID,0,INVALID,163.685,VALID,0,VALID,24.2875,VALID,1,VALID,0.562109,
2011-01-13, 00:54:04,VALID,1000.4,VALID,0,INVALID,163.67,VALID,0,VALID,24.2644,VALID,346,VALID,0.794531,
2011-01-13, 00:55:04,VALID,1000.35,VALID,0,INVALID,163.678,VALID,0,VALID,24.3654,VALID,341,VALID,0.652734,
2011-01-13, 00:56:04,VALID,1000.35,VALID,0,INVALID,163.678,VALID,0,VALID,24.422,VALID,345,VALID,0.890625,
2011-01-13, 00:57:04,VALID,1000.32,VALID,0,INVALID,163.662,VALID,0,VALID,24.5017,VALID,342,VALID,0.942578,
2011-01-13, 00:58:04,VALID,1000.27,VALID,0,INVALID,163.67,VALID,0,VALID,24.5601,VALID,346,VALID,0.778906,
2011-01-13, 00:59:04,VALID,1000.29,VALID,0,INVALID,163.67,VALID,0,VALID,24.5972,VALID,332,VALID,0.441016,
2011-01-13, 01:00:04,VALID,1000.25,VALID,0,INVALID,163.647,VALID,0,VALID,24.6769,VALID,354,VALID,0.605078,
2011-01-13, 01:01:04,VALID,1000.29,VALID,0,INVALID,163.647,VALID,0,VALID,24.6964,VALID,354,VALID,0.216016,
2011-01-13, 01:02:04,VALID,1000.3,VALID,0,INVALID,163.639,VALID,0,VALID,24.6945,VALID,345,VALID,0.01875,
2011-01-13, 01:03:04,VALID,1000.3,VALID,0,INVALID,163.639,VALID,0,VALID,24.7548,VALID,347,VALID,0.925,
2011-01-13, 01:04:04,VALID,1000.31,VALID,0,INVALID,163.632,VALID,0,VALID,24.8132,VALID,337,VALID,0.842578,
2011-01-13, 01:05:04,VALID,1000.32,VALID,0,INVALID,163.632,VALID,0,VALID,24.8327,VALID,344,VALID,0.677734,
2011-01-13, 01:06:04,VALID,1000.33,VALID,0,INVALID,163.617,VALID,0,VALID,24.8503,VALID,354,VALID,0.764844,
2011-01-13, 01:07:04,VALID,1000.3,VALID,0,INVALID,163.632,VALID,0,VALID,24.8503,VALID,353,VALID,0.933984,
2011-01-13, 01:08:04,VALID,1000.29,VALID,0,INVALID,163.624,VALID,0,VALID,24.9087,VALID,353,VALID,0.877344,
2011-01-13, 01:09:04,VALID,1000.29,VALID,0,INVALID,163.647,VALID,0,VALID,24.969,VALID,340,VALID,0.761328,
2011-01-13, 01:10:04,VALID,1000.25,VALID,0,INVALID,163.594,VALID,0,VALID,24.9866,VALID,2,VALID,0.941016,
2011-01-13, 01:11:04,VALID,1000.23,VALID,0,INVALID,163.609,VALID,0,VALID,25.0858,VALID,353,VALID,0.952344,
2011-01-13, 01:12:04,VALID,1000.18,VALID,0,INVALID,163.601,VALID,0,VALID,25.1034,VALID,353,VALID,0.809766,
2011-01-13, 01:13:04,VALID,1000.13,VALID,0,INVALID,163.601,VALID,0,VALID,25.1442,VALID,345,VALID,0.821484,
2011-01-13, 01:14:04,VALID,1000.12,VALID,0,INVALID,163.578,VALID,0,VALID,25.1618,VALID,348,VALID,1.02539,
2011-01-13, 01:15:04,VALID,1000.09,VALID,0,INVALID,153.012,VALID,0,VALID,25.2027,VALID,337,VALID,0.841406,
2011-01-13, 01:16:04,VALID,1000.04,VALID,0,INVALID,142.897,VALID,0,VALID,25.2221,VALID,2,VALID,1.05742,
2011-01-13, 01:17:04,VALID,1000.07,VALID,0,INVALID,138.251,VALID,0,VALID,25.2611,VALID,332,VALID,0.274609,
2011-01-13, 01:18:04,VALID,1000.03,VALID,0,INVALID,134.329,VALID,0,VALID,25.2611,VALID,347,VALID,0.929688,
2011-01-13, 01:19:04,VALID,1000.01,VALID,0,INVALID,131.758,VALID,0,VALID,25.3,VALID,352,VALID,0.128516,
2011-01-13, 01:20:04,VALID,999.975,VALID,0,INVALID,134.673,VALID,0,VALID,25.2806,VALID,352,VALID,0.121484,
2011-01-13, 01:21:04,VALID,999.967,VALID,0,INVALID,128.425,VALID,0,VALID,25.2611,VALID,336,VALID,0.760156,
2011-01-13, 01:22:04,VALID,999.978,VALID,0,INVALID,127.135,VALID,0,VALID,25.2806,VALID,346,VALID,0.801953,
2011-01-13, 01:23:04,VALID,999.975,VALID,0,INVALID,125.487,VALID,0,VALID,25.2806,VALID,340,VALID,0.803906,
2011-01-13, 01:24:04,VALID,999.958,VALID,0,INVALID,125.556,VALID,0,VALID,25.2397,VALID,341,VALID,0.524219,
2011-01-13, 01:25:04,VALID,999.94,VALID,0,INVALID,125.846,VALID,0,VALID,25.2397,VALID,345,VALID,0.377344,
2011-01-13, 01:26:04,VALID,999.924,VALID,0,INVALID,127.12,VALID,0,VALID,25.2202,VALID,343,VALID,0.0175781,
2011-01-13, 01:27:04,VALID,999.925,VALID,0,INVALID,127.646,VALID,0,VALID,25.2007,VALID,4,VALID,0.703125,
2011-01-13, 01:28:04,VALID,999.95,VALID,0,INVALID,125.266,VALID,0,VALID,25.1813,VALID,354,VALID,0.876562,
2011-01-13, 01:29:04,VALID,999.954,VALID,0,INVALID,124.465,VALID,0,VALID,25.2007,VALID,352,VALID,0.595312,
2011-01-13, 01:30:04,VALID,999.96,VALID,0,INVALID,123.069,VALID,0,VALID,25.2416,VALID,352,VALID,0.99375,
2011-01-13, 01:31:04,VALID,999.927,VALID,0,INVALID,121.597,VALID,0,VALID,25.2416,VALID,354,VALID,0.700781,
2011-01-13, 01:32:04,VALID,999.895,VALID,0,INVALID,120.384,VALID,0,VALID,25.2397,VALID,346,VALID,0.720312,
2011-01-13, 01:33:04,VALID,999.897,VALID,0,INVALID,117.332,VALID,0,VALID,25.2611,VALID,347,VALID,0.919922,
2011-01-13, 01:34:04,VALID,999.841,VALID,0,INVALID,116.02,VALID,0,VALID,25.2786,VALID,354,VALID,0.572656,
2011-01-13, 01:35:04,VALID,999.843,VALID,0,INVALID,116.852,VALID,0,VALID,25.2592,VALID,357,VALID,0.389453,
2011-01-13, 01:36:04,VALID,999.825,VALID,0,INVALID,119.491,VALID,0,VALID,25.2202,VALID,358,VALID,0.365625,
2011-01-13, 01:37:04,VALID,999.843,VALID,0,INVALID,122.016,VALID,0,VALID,25.1423,VALID,29,VALID,0.558594,
2011-01-13, 01:38:04,VALID,999.816,VALID,0,INVALID,128.905,VALID,0,VALID,25.0663,VALID,29,VALID,0.164453,
2011-01-13, 01:39:04,VALID,999.808,VALID,0,INVALID,140.448,VALID,0,VALID,25.0079,VALID,25,VALID,0.316406,
2011-01-13, 01:40:04,VALID,999.806,VALID,0,INVALID,149.511,VALID,0,VALID,24.9087,VALID,6,VALID,0.399609,
2011-01-13, 01:41:04,VALID,999.821,VALID,0,INVALID,160.268,VALID,0,VALID,24.9106,VALID,6,VALID,0,
2011-01-13, 01:42:04,VALID,999.815,VALID,0,INVALID,163.617,VALID,0,VALID,24.8716,VALID,6,VALID,0.0351563,
2011-01-13, 01:43:04,VALID,999.789,VALID,0,INVALID,163.624,VALID,0,VALID,24.8716,VALID,308,VALID,0.588281,
2011-01-13, 01:44:04,VALID,999.801,VALID,0,INVALID,163.617,VALID,0,VALID,24.8503,VALID,304,VALID,0.583203,
2011-01-13, 01:45:04,VALID,999.765,VALID,0,INVALID,163.609,VALID,0,VALID,24.9087,VALID,295,VALID,0.399609,
2011-01-13, 01:46:04,VALID,999.763,VALID,0,INVALID,163.639,VALID,0,VALID,24.9709,VALID,295,VALID,0,
2011-01-13, 01:47:04,VALID,999.773,VALID,0,INVALID,163.601,VALID,0,VALID,24.9476,VALID,340,VALID,0.436328,
2011-01-13, 01:48:04,VALID,999.766,VALID,0,INVALID,163.601,VALID,0,VALID,24.9866,VALID,346,VALID,0.457031,
2011-01-13, 01:49:04,VALID,999.768,VALID,0,INVALID,163.639,VALID,0,VALID,24.9885,VALID,350,VALID,0.598047,
2011-01-13, 01:50:04,VALID,999.778,VALID,0,INVALID,163.639,VALID,0,VALID,24.8911,VALID,10,VALID,0.564062,
2011-01-13, 01:51:04,VALID,999.763,VALID,0,INVALID,163.632,VALID,0,VALID,24.7919,VALID,10,VALID,0.491016,
2011-01-13, 01:52:04,VALID,999.783,VALID,0,INVALID,163.639,VALID,0,VALID,24.714,VALID,10,VALID,0.349609,
2011-01-13, 01:53:04,VALID,999.79,VALID,0,INVALID,163.647,VALID,0,VALID,24.6556,VALID,10,VALID,0.319531,
2011-01-13, 01:54:04,VALID,999.816,VALID,0,INVALID,163.639,VALID,0,VALID,24.5777,VALID,10,VALID,0.0722656,
2011-01-13, 01:55:04,VALID,999.769,VALID,0,INVALID,163.647,VALID,0,VALID,24.5601,VALID,10,VALID,0.0820313,
2011-01-13, 01:56:04,VALID,999.817,VALID,0,INVALID,163.647,VALID,0,VALID,24.4804,VALID,10,VALID,0.113672,
2011-01-13, 01:57:04,VALID,999.778,VALID,0,INVALID,163.67,VALID,0,VALID,24.4414,VALID,10,VALID,0.20625,
2011-01-13, 01:58:04,VALID,999.741,VALID,0,INVALID,163.662,VALID,0,VALID,24.422,VALID,10,VALID,0.15,
2011-01-13, 01:59:04,VALID,999.739,VALID,0,INVALID,163.678,VALID,0,VALID,24.4238,VALID,10,VALID,0.139062,
2011-01-13, 02:00:04,VALID,999.709,VALID,0,INVALID,163.662,VALID,0,VALID,24.3636,VALID,10,VALID,0.0957031,
2011-01-13, 02:01:04,VALID,999.651,VALID,0,INVALID,163.678,VALID,0,VALID,24.3849,VALID,10,VALID,0.307422,
2011-01-13, 02:02:04,VALID,999.652,VALID,0,INVALID,163.708,VALID,0,VALID,24.3246,VALID,10,VALID,0.388672,
2011-01-13, 02:03:04,VALID,999.627,VALID,0,INVALID,163.678,VALID,0,VALID,24.2857,VALID,352,VALID,0.75,
2011-01-13, 02:04:04,VALID,999.602,VALID,0,INVALID,163.685,VALID,0,VALID,24.2468,VALID,14,VALID,0.841016,
2011-01-13, 02:05:04,VALID,999.615,VALID,0,INVALID,163.708,VALID,0,VALID,24.2078,VALID,15,VALID,0.703125,
2011-01-13, 02:06:04,VALID,999.627,VALID,0,INVALID,163.731,VALID,0,VALID,24.1884,VALID,10,VALID,0.460156,
2011-01-13, 02:07:04,VALID,999.613,VALID,0,INVALID,163.693,VALID,0,VALID,24.1689,VALID,10,VALID,0.655859,
2011-01-13, 02:08:04,VALID,999.637,VALID,0,INVALID,163.678,VALID,0,VALID,24.1494,VALID,24,VALID,0.685547,
2011-01-13, 02:09:04,VALID,999.627,VALID,0,INVALID,163.693,VALID,0,VALID,24.1707,VALID,24,VALID,0.429297,
2011-01-13, 02:10:04,VALID,999.643,VALID,0,INVALID,163.708,VALID,0,VALID,24.1513,VALID,24,VALID,0.483203,
2011-01-13, 02:11:04,VALID,999.628,VALID,0,INVALID,163.685,VALID,0,VALID,24.1707,VALID,24,VALID,0.212891,
2011-01-13, 02:12:04,VALID,999.608,VALID,0,INVALID,163.678,VALID,0,VALID,24.1707,VALID,24,VALID,0.31875,
2011-01-13, 02:13:04,VALID,999.569,VALID,0,INVALID,163.685,VALID,0,VALID,24.1494,VALID,24,VALID,0.273828,
2011-01-13, 02:14:04,VALID,999.547,VALID,0,INVALID,163.708,VALID,0,VALID,24.1318,VALID,24,VALID,0.428125,
2011-01-13, 02:15:04,VALID,999.491,VALID,0,INVALID,163.67,VALID,0,VALID,24.1123,VALID,24,VALID,0.445703,
2011-01-13, 02:16:04,VALID,999.491,VALID,0,INVALID,163.693,VALID,0,VALID,24.1123,VALID,24,VALID,0.389453,
2011-01-13, 02:17:04,VALID,999.464,VALID,0,INVALID,163.708,VALID,0,VALID,24.0929,VALID,24,VALID,0.560938,
2011-01-13, 02:18:04,VALID,999.452,VALID,0,INVALID,163.678,VALID,0,VALID,24.0734,VALID,24,VALID,0.537891,
2011-01-13, 02:19:04,VALID,999.442,VALID,0,INVALID,163.716,VALID,0,VALID,24.0345,VALID,24,VALID,0.411328,
2011-01-13, 02:20:04,VALID,999.464,VALID,0,INVALID,163.701,VALID,0,VALID,23.9955,VALID,24,VALID,0.573047,
2011-01-13, 02:21:04,VALID,999.448,VALID,0,INVALID,163.716,VALID,0,VALID,23.9761,VALID,24,VALID,0.514844,
2011-01-13, 02:22:04,VALID,999.441,VALID,0,INVALID,163.708,VALID,0,VALID,23.9566,VALID,20,VALID,0.528906,
2011-01-13, 02:23:04,VALID,999.425,VALID,0,INVALID,163.708,VALID,0,VALID,23.9177,VALID,20,VALID,0.594531,
2011-01-13, 02:24:04,VALID,999.403,VALID,0,INVALID,163.708,VALID,0,VALID,23.8982,VALID,20,VALID,0.578125,
2011-01-13, 02:25:04,VALID,999.338,VALID,0,INVALID,163.723,VALID,0,VALID,23.8398,VALID,20,VALID,0.590234,
2011-01-13, 02:26:04,VALID,999.34,VALID,0,INVALID,163.708,VALID,0,VALID,23.8398,VALID,20,VALID,0.453906,
2011-01-13, 02:27:04,VALID,999.323,VALID,0,INVALID,163.731,VALID,0,VALID,23.7991,VALID,20,VALID,0.484766,
2011-01-13, 02:28:04,VALID,999.285,VALID,0,INVALID,163.701,VALID,0,VALID,23.8203,VALID,20,VALID,0.483203,
2011-01-13, 02:29:04,VALID,999.292,VALID,0,INVALID,163.716,VALID,0,VALID,23.7991,VALID,20,VALID,0.416016,
2011-01-13, 02:30:04,VALID,999.282,VALID,0,INVALID,163.716,VALID,0,VALID,23.8009,VALID,20,VALID,0.483984,
2011-01-13, 02:31:04,VALID,999.263,VALID,0,INVALID,163.739,VALID,0,VALID,23.7796,VALID,20,VALID,0.489062,
2011-01-13, 02:32:04,VALID,999.267,VALID,0,INVALID,163.708,VALID,0,VALID,23.8221,VALID,20,VALID,0.457422,
2011-01-13, 02:33:04,VALID,999.287,VALID,0,INVALID,163.723,VALID,0,VALID,23.8009,VALID,20,VALID,0.419922,
2011-01-13, 02:34:04,VALID,999.283,VALID,0,INVALID,163.731,VALID,0,VALID,23.8009,VALID,20,VALID,0.364844,
2011-01-13, 02:35:04,VALID,999.26,VALID,0,INVALID,163.723,VALID,0,VALID,23.8009,VALID,20,VALID,0.189453,
2011-01-13, 02:36:04,VALID,999.257,VALID,0,INVALID,163.708,VALID,0,VALID,23.8203,VALID,20,VALID,0.279687,
2011-01-13, 02:37:04,VALID,999.205,VALID,0,INVALID,163.723,VALID,0,VALID,23.8203,VALID,20,VALID,0.294531,
2011-01-13, 02:38:04,VALID,999.198,VALID,0,INVALID,163.739,VALID,0,VALID,23.8398,VALID,20,VALID,0.325,
2011-01-13, 02:39:04,VALID,999.193,VALID,0,INVALID,163.716,VALID,0,VALID,23.8398,VALID,20,VALID,0.351172,
2011-01-13, 02:40:04,VALID,999.199,VALID,0,INVALID,163.708,VALID,0,VALID,23.8185,VALID,20,VALID,0.395312,
2011-01-13, 02:41:04,VALID,999.205,VALID,0,INVALID,163.716,VALID,0,VALID,23.8398,VALID,20,VALID,0.362891,
2011-01-13, 02:42:04,VALID,999.199,VALID,0,INVALID,163.723,VALID,0,VALID,23.8185,VALID,20,VALID,0.428125,
2011-01-13, 02:43:04,VALID,999.266,VALID,0,INVALID,163.716,VALID,0,VALID,23.838,VALID,20,VALID,0.365625,
2011-01-13, 02:44:04,VALID,999.293,VALID,0,INVALID,163.723,VALID,0,VALID,23.8398,VALID,20,VALID,0.408594,
2011-01-13, 02:45:04,VALID,999.278,VALID,0,INVALID,163.731,VALID,0,VALID,23.8185,VALID,20,VALID,0.454688,
2011-01-13, 02:46:04,VALID,999.323,VALID,0,INVALID,163.731,VALID,0,VALID,23.8593,VALID,20,VALID,0.376953,
2011-01-13, 02:47:04,VALID,999.318,VALID,0,INVALID,163.716,VALID,0,VALID,23.8593,VALID,20,VALID,0.358984,
2011-01-13, 02:48:04,VALID,999.309,VALID,0,INVALID,163.731,VALID,0,VALID,23.8593,VALID,20,VALID,0.399609,
2011-01-13, 02:49:04,VALID,999.316,VALID,0,INVALID,163.723,VALID,0,VALID,23.838,VALID,20,VALID,0.578906,
2011-01-13, 02:50:04,VALID,999.315,VALID,0,INVALID,163.708,VALID,0,VALID,23.9177,VALID,20,VALID,0.502734,
2011-01-13, 02:51:04,VALID,999.312,VALID,0,INVALID,163.693,VALID,0,VALID,23.9566,VALID,20,VALID,0.480859,
2011-01-13, 02:52:04,VALID,999.284,VALID,0,INVALID,163.708,VALID,0,VALID,23.9761,VALID,20,VALID,0.397266,
2011-01-13, 02:53:04,VALID,999.276,VALID,0,INVALID,163.693,VALID,0,VALID,23.9353,VALID,20,VALID,0.328516,
2011-01-13, 02:54:04,VALID,999.307,VALID,0,INVALID,163.716,VALID,0,VALID,23.9548,VALID,20,VALID,0.224219,
2011-01-13, 02:55:04,VALID,999.301,VALID,0,INVALID,163.731,VALID,0,VALID,23.9548,VALID,20,VALID,0.178516,
2011-01-13, 02:56:04,VALID,999.336,VALID,0,INVALID,163.708,VALID,0,VALID,23.9742,VALID,20,VALID,0.427734,
2011-01-13, 02:57:04,VALID,999.334,VALID,0,INVALID,163.662,VALID,0,VALID,23.9742,VALID,20,VALID,0.0703125,
2011-01-13, 02:58:04,VALID,999.354,VALID,0,INVALID,163.708,VALID,0,VALID,23.9937,VALID,20,VALID,0,
2011-01-13, 02:59:04,VALID,999.351,VALID,0,INVALID,163.701,VALID,0,VALID,23.9937,VALID,20,VALID,0,
2011-01-13, 03:00:04,VALID,999.389,VALID,0,INVALID,163.701,VALID,0,VALID,23.9937,VALID,20,VALID,0.283594,
2011-01-13, 03:01:04,VALID,999.394,VALID,0,INVALID,163.693,VALID,0,VALID,24.0345,VALID,20,VALID,0.594922,
2011-01-13, 03:02:04,VALID,999.41,VALID,0,INVALID,163.693,VALID,0,VALID,23.9761,VALID,20,VALID,0.551172,
2011-01-13, 03:03:04,VALID,999.424,VALID,0,INVALID,163.716,VALID,0,VALID,23.9371,VALID,20,VALID,0.456641,
2011-01-13, 03:04:04,VALID,999.443,VALID,0,INVALID,163.701,VALID,0,VALID,23.838,VALID,20,VALID,0.413672,
2011-01-13, 03:05:04,VALID,999.437,VALID,0,INVALID,163.723,VALID,0,VALID,23.8009,VALID,20,VALID,0.467969,
2011-01-13, 03:06:04,VALID,999.461,VALID,0,INVALID,163.708,VALID,0,VALID,23.7407,VALID,20,VALID,0.340625,
2011-01-13, 03:07:04,VALID,999.473,VALID,0,INVALID,163.746,VALID,0,VALID,23.6823,VALID,20,VALID,0.436328,
2011-01-13, 03:08:04,VALID,999.484,VALID,0,INVALID,163.723,VALID,0,VALID,23.6434,VALID,20,VALID,0.489062,
2011-01-13, 03:09:04,VALID,999.463,VALID,0,INVALID,163.762,VALID,0,VALID,23.6062,VALID,20,VALID,0.495313,
2011-01-13, 03:10:04,VALID,999.456,VALID,0,INVALID,163.739,VALID,0,VALID,23.6062,VALID,16,VALID,0.561719,
2011-01-13, 03:11:04,VALID,999.473,VALID,0,INVALID,163.746,VALID,0,VALID,23.546,VALID,15,VALID,0.417578,
2011-01-13, 03:12:04,VALID,999.446,VALID,0,INVALID,163.739,VALID,0,VALID,23.5284,VALID,15,VALID,0.366797,
2011-01-13, 03:13:04,VALID,999.457,VALID,0,INVALID,163.754,VALID,0.100563,VALID,23.4877,VALID,15,VALID,0.532031,
2011-01-13, 03:14:04,VALID,999.448,VALID,0,INVALID,163.754,VALID,0,VALID,23.4682,VALID,15,VALID,0.479688,
2011-01-13, 03:15:04,VALID,999.451,VALID,0,INVALID,163.731,VALID,0,VALID,23.47,VALID,15,VALID,0.393359,
2011-01-13, 03:16:04,VALID,999.467,VALID,0,INVALID,163.754,VALID,0,VALID,23.4098,VALID,16,VALID,0.494141,
2011-01-13, 03:17:04,VALID,999.493,VALID,0,INVALID,163.746,VALID,0,VALID,23.4098,VALID,15,VALID,0.610156,
2011-01-13, 03:18:04,VALID,999.506,VALID,0,INVALID,163.731,VALID,0,VALID,23.4098,VALID,15,VALID,0.646094,
2011-01-13, 03:19:04,VALID,999.495,VALID,0,INVALID,163.777,VALID,0,VALID,23.4311,VALID,15,VALID,0.725391,
2011-01-13, 03:20:04,VALID,999.508,VALID,0,INVALID,163.754,VALID,0,VALID,23.4098,VALID,15,VALID,0.737109,
2011-01-13, 03:21:04,VALID,999.529,VALID,0,INVALID,163.731,VALID,0,VALID,23.3709,VALID,15,VALID,0.746094,
2011-01-13, 03:22:04,VALID,999.524,VALID,0,INVALID,163.746,VALID,0,VALID,23.3709,VALID,15,VALID,0.691406,
2011-01-13, 03:23:04,VALID,999.539,VALID,0,INVALID,163.746,VALID,0,VALID,23.3497,VALID,15,VALID,0.634375,
2011-01-13, 03:24:04,VALID,999.598,VALID,0,INVALID,163.739,VALID,0,VALID,23.3709,VALID,15,VALID,0.542969,
2011-01-13, 03:25:04,VALID,999.625,VALID,0,INVALID,163.754,VALID,0,VALID,23.3709,VALID,15,VALID,0.348828,
2011-01-13, 03:26:04,VALID,999.615,VALID,0,INVALID,163.777,VALID,0,VALID,23.3709,VALID,15,VALID,0.259375,
2011-01-13, 03:27:04,VALID,999.643,VALID,0,INVALID,163.777,VALID,0,VALID,23.3904,VALID,15,VALID,0.272266,
2011-01-13, 03:28:04,VALID,999.676,VALID,0,INVALID,163.769,VALID,0,VALID,23.3709,VALID,15,VALID,0.170312,
2011-01-13, 03:29:04,VALID,999.677,VALID,0,INVALID,163.754,VALID,0,VALID,23.3921,VALID,16,VALID,0,
2011-01-13, 03:30:04,VALID,999.679,VALID,0,INVALID,163.746,VALID,0,VALID,23.3709,VALID,15,VALID,0,
2011-01-13, 03:31:04,VALID,999.681,VALID,0,INVALID,163.769,VALID,0,VALID,23.3727,VALID,16,VALID,0,
2011-01-13, 03:32:04,VALID,999.685,VALID,0,INVALID,163.769,VALID,0,VALID,23.3514,VALID,16,VALID,0,
2011-01-13, 03:33:04,VALID,999.685,VALID,0,INVALID,163.731,VALID,0,VALID,23.332,VALID,15,VALID,0,
2011-01-13, 03:34:04,VALID,999.713,VALID,0,INVALID,163.746,VALID,0,VALID,23.3125,VALID,15,VALID,0,
2011-01-13, 03:35:04,VALID,999.715,VALID,0,INVALID,163.762,VALID,0,VALID,23.3514,VALID,16,VALID,0,
2011-01-13, 03:36:04,VALID,999.727,VALID,0,INVALID,163.746,VALID,0,VALID,23.3709,VALID,16,VALID,0,
2011-01-13, 03:37:04,VALID,999.712,VALID,0,INVALID,163.762,VALID,0,VALID,23.3921,VALID,15,VALID,0.348437,
2011-01-13, 03:38:04,VALID,999.745,VALID,0,INVALID,163.762,VALID,0,VALID,23.3709,VALID,16,VALID,0.335156,
2011-01-13, 03:39:04,VALID,999.759,VALID,0,INVALID,163.754,VALID,0,VALID,23.3904,VALID,15,VALID,0.269922,
2011-01-13, 03:40:04,VALID,999.749,VALID,0,INVALID,163.769,VALID,0,VALID,23.3709,VALID,15,VALID,0.611328,
2011-01-13, 03:41:04,VALID,999.718,VALID,0,INVALID,163.762,VALID,0,VALID,23.3514,VALID,16,VALID,0.558594,
2011-01-13, 03:42:04,VALID,999.725,VALID,0,INVALID,163.762,VALID,0,VALID,23.3514,VALID,14,VALID,0.551172,